Flag for U.S.A. Weather past 2 weeks in Lancaster, California, U.S.A.

Now
80 °F

Clear.


Feels Like: 79 °F
Forecast: 71 / 100 °F
Wind: 7 mph from West

Location: Lancaster / Fox Field

Current Time: Aug 29, 2014 at 11:34:47 PM

Latest Report: Aug 29, 2014 at 10:56 PM


Visibility: 10 mi

Pressure: 29.83 "Hg

Humidity: 20%

Dew point: 35 °F

Location of LancasterLocation

Historic Weather in Lancaster — Graph

°F

Lancaster temperature yesterday

Maximum temperature yesterday: 101 °F (at 2:56 PM)
Minimum temperature yesterday: 62 °F (at 6:56 AM)
Average temperature yesterday: 83 °F

Past Weeks' High & Low Weather Summary

 TemperatureHumidityPressure
High101 °F (Aug 17, 1:56 PM)72% (Aug 20, 6:56 AM)30.10 "Hg (Aug 20, 6:56 AM)
Low54 °F (Aug 27, 5:56 AM)6% (Aug 17, 1:56 PM)29.74 "Hg (Aug 18, 4:56 PM)
Average79 °F29%29.90 "Hg
* Reported Aug 14 9:56 PM — Aug 29 9:56 PM, Lancaster, Weather by CustomWeather, © 2014

Note: Actual official high and low records may vary slightly from our data, if they occured in-between our weather recording intervals... More about our weather records

Advertising

Lancaster weather history for previous 24 hours

 ConditionsComfort  
Time TempWeatherWind HumidityBarometerVisibility
9:56 PM
Aug 29
80 °FClear.9 mph22%29.84 "Hg10 mi
8:56 PM82 °FClear.17 mph21%29.84 "Hg10 mi
7:56 PM84 °FSunny.20 mph21%29.83 "Hg10 mi
6:56 PM89 °FSunny.23 mph17%29.81 "Hg10 mi
5:56 PM94 °FSunny.18 mph13%29.80 "Hg10 mi
4:56 PM98 °FSunny.18 mph10%29.79 "Hg10 mi
3:56 PM100 °FSunny.15 mph8%29.78 "Hg10 mi
2:56 PM100 °FSunny.14 mph7%29.80 "Hg10 mi
1:56 PM99 °FSunny.3 mph8%29.82 "Hg10 mi
11:56 AM95 °FSunny.No wind11%29.86 "Hg10 mi
10:56 AM91 °FSunny.6 mph13%29.88 "Hg10 mi
9:56 AM86 °FSunny.No wind17%29.89 "Hg10 mi
8:56 AM78 °FSunny.No wind28%29.90 "Hg10 mi
7:56 AM70 °FSunny.No wind37%29.90 "Hg10 mi
6:56 AM59 °FClear.No wind42%29.90 "Hg10 mi
5:56 AM62 °FClear.No wind43%29.89 "Hg10 mi
4:56 AM61 °FClear.3 mph41%29.88 "Hg10 mi
3:56 AM67 °FClear.No wind36%29.88 "Hg10 mi
2:56 AM68 °FClear.6 mph35%29.88 "Hg10 mi
1:56 AM67 °FClear.3 mph35%29.89 "Hg10 mi
12:56 AM76 °FClear.6 mph29%29.90 "Hg10 mi
11:56 PM
Aug 28
77 °FClear.No wind29%29.90 "Hg10 mi
Weather by CustomWeather, © 2014

See weather overviewHow to use our weather pages